Location: Unspecified
(0.0000°N, 0.0000°E)
Time: 14:18:57
(UTC+02:00)

PROBA 2 - Visible Passes

Search period start: 29 May 2022 00:00
Search period end: 08 June 2022 00:00
Orbit: 705 x 725 km, 98.2° (Epoch: 28 May)

Date Brightness Start Highest point End Pass type
(mag) Time Alt. Az. Time Alt. Az. Time Alt. Az.
29 May ? 07:13:52 10° SE 07:17:57 27° ENE 07:22:00 10° NNE visible
30 May ? 20:23:18 10° NNW 20:27:37 35° WNW 20:31:59 10° SW visible
31 May ? 07:09:23 10° SE 07:13:15 24° ENE 07:17:05 10° NNE visible
01 Jun ? 20:18:28 10° N 20:22:56 41° WNW 20:27:25 10° SSW visible
02 Jun ? 07:04:58 10° SE 07:08:33 21° ENE 07:12:07 10° NNE visible
03 Jun ? 20:13:40 10° N 20:18:13 47° WNW 20:22:49 10° SSW visible
04 Jun ? 07:00:36 10° ESE 07:03:51 18° ENE 07:07:06 10° NE visible
04 Jun ? 21:03:08 10° WNW 21:04:44 12° WNW 21:06:19 10° W visible
06 Jun ? 06:56:19 10° ESE 06:59:09 16° ENE 07:02:00 10° NE visible
06 Jun ? 20:57:43 10° NW 21:00:02 14° WNW 21:02:20 10° WSW visible
